FENGYUN 1C DEB

Satellite information

Favourite Embed

Satellite Type and Status

DEBRISIN ORBIT

Key statistics

Satellite FENGYUN 1C DEB at a glance.

Uptime

9555

Days in orbit

Revolutions

≈ 14.1

Per day

Orbit

SSO

Sun Synchronous Orbit

Inclination

98.4

Latest

Satellite identification and parameters

Extended collection of information and parameters for FENGYUN 1C DEB.

Object identification

Identified? True

Debris? True

Object name: FENGYUN 1C DEB

International designator: 1999-025AXV

Object number (NORAD): 30883

Object ID (CCSDS): 30883

Country: PEOPLES REPUBLIC OF CHINA (PRC)

Current information (Y/N): Y

RCS size: SMALL

Orbital parameters

Period: 101.81 minutes

Inclination: 98.3825 deg

SMA: 7222.471 km

Apoapsis: 924.895 km

Periapsis: 763.776 km

RAAN: 233.3642 deg

Eccentricy: 0.011154

Argument of periapsis: 317.2438 deg

Mean anomaly: 101.9629 deg

Mean motion: 14.14405951 rev/day

Mean motion (dot): 0.00000173 rev/day2

B* drag term: 0.0001052 1/REarth

Two-line elements (TLE)

Creation date: July 5, 2025, 5:45 p.m.

Reference frame: TEME

Reference center: EARTH

Epoch: July 5, 2025, 8:41 a.m. UTC

TLE line 0: 0 FENGYUN 1C DEB

TLE line 1: 1 30883U 99025AXV 25186.36199252 .00000173 00000-0 10520-3 0 9998

TLE line 2: 2 30883 98.3825 233.3642 0111540 317.2438 101.9629 14.14405951946508

Live tracking on map

Real-time ground track for satellite FENGYUN 1C DEB.

In-orbit conjunctions

A list of the most updated potential collisions computed for object FENGYUN 1C DEB.

Target Orbit TCA Probability of collision Miss distance Type
COSMOS 1736 FUEL CORE LEO 2025-05-29 01:06:18 0.000695439 125.0 (m) DEBRIS
CZ-6A DEB SSO 2024-07-06 05:39:13 0.0001418294 251.0 (m) DEBRIS
COSMOS 651 LEO 2024-06-20 00:25:11 0.0009973012 43.0 (m) PAYLOAD

Associated space launch

Chinese polar orbiting meteorological satellite

FENGYUN 1C DEB was lifted into orbit during the mission ‘Long March 4B | Feng Yun 1C’, on board a Long March 4B space rocket.

The launch took place on May 10, 1999, 1:33 a.m. from Launch Complex 7.

For more information about the launch, click the button.

Launch to space Long March 4B | Feng Yun 1C
Long March 4B | Feng Yun 1C

Agency: N/A

Status: Launch Successful

Launch date: May 10, 1999, 1:33 a.m. UTC

Rocket: Long March 4B

Launch pad: Launch Complex 7

Location: Taiyuan Satellite Launch Center, People's Republic of China

...

Latest news about this satellite

There are no fresh news available about this satellite. Check back as we update our databases every day.


Newsletter sign-up

Weekly statistics, charts and insights to help you stay on top of the space industry.